Flag Weather past 2 weeks in Pocatello, Idaho, U.S.A.

Now
43 °F

Partly cloudy.


Feels Like: 36 °F
Forecast: 29 / 42 °F
Wind: 14 mph from South

Location: Pocatello Regional Airport

Current Time: Nov 22, 2014 at 2:10:22 AM

Latest Report: Nov 22, 2014 at 12:53 AM


Visibility: 10 mi

Pressure: 29.88 "Hg

Humidity: 51%

Dew point: 26 °F

Location of PocatelloLocation

Historic Weather in Pocatello — Graph

°F

Pocatello temperature yesterday

Maximum temperature yesterday: 43 °F (at 10:53 PM)
Minimum temperature yesterday: 17 °F (at 7:53 AM)
Average temperature yesterday: 30 °F

Past Weeks' High & Low Weather Summary

 TemperatureHumidityPressure
High64 °F (Nov 9, 1:53 PM)100% (Nov 14, 8:53 AM)30.76 "Hg (Nov 14, 8:53 AM)
Low-1 °F (Nov 17, 6:53 AM)31% (Nov 12, 1:53 PM)29.55 "Hg (Nov 10, 1:53 AM)
Average26 °F74%30.26 "Hg
* Reported Nov 7 12:53 AM — Nov 22 12:53 AM, Pocatello, Weather by CustomWeather, © 2014

Note: Actual official high and low records may vary slightly from our data, if they occured in-between our weather recording intervals... More about our weather records

Advertising

Pocatello weather history for previous 24 hours

 ConditionsComfort  
Time TempWeatherWind HumidityBarometerVisibility
12:53 AM
Nov 22
43 °FPartly cloudy.14 mph51%29.88 "Hg10 mi
11:53 PM
Nov 21
43 °FOvercast.16 mph51%29.90 "Hg10 mi
10:53 PM43 °FOvercast.16 mph53%29.93 "Hg10 mi
9:53 PM42 °FOvercast.18 mph55%29.94 "Hg10 mi
8:53 PM35 °FPassing clouds.No wind70%29.98 "Hg10 mi
7:53 PM36 °FClear.3 mph70%30.00 "Hg10 mi
6:53 PM28 °FClear.6 mph93%30.04 "Hg10 mi
5:53 PM29 °FSunny.No wind89%30.06 "Hg10 mi
4:53 PM38 °FSunny.No wind68%30.04 "Hg10 mi
3:53 PM41 °FSunny.3 mph60%30.04 "Hg10 mi
2:53 PM38 °FSunny.3 mph68%30.06 "Hg10 mi
1:53 PM39 °FSunny.No wind65%30.06 "Hg10 mi
12:53 PM37 °FSunny.No wind67%30.09 "Hg10 mi
11:53 AM35 °FSunny.No wind70%30.11 "Hg10 mi
10:53 AM31 °FPassing clouds.No wind82%30.14 "Hg10 mi
9:53 AM26 °FIce fog.5 mph88%30.14 "Hg6 mi
8:53 AM24 °FSunny.No wind91%30.14 "Hg7 mi
7:53 AM17 °FIce fog.No wind95%30.16 "Hg6 mi
6:53 AM19 °FClear.No wind96%30.15 "Hg10 mi
5:53 AM20 °FIce fog.No wind100%30.11 "Hg5 mi
4:53 AM20 °FIce fog.No wind100%30.11 "Hg5 mi
3:53 AM21 °FIce fog.5 mph96%30.10 "Hg5 mi
2:53 AM21 °FIce fog.7 mph96%30.11 "Hg5 mi
Weather by CustomWeather, © 2014

See weather overviewHow to use our weather pages